#	Date Time	Temp �C 
1	1/29/2014 10:45	22.046
2	1/29/2014 11:00	21.855
3	1/29/2014 11:15	21.473
4	1/29/2014 11:30	21.378
5	1/29/2014 11:45	21.378
6	1/29/2014 12:00	21.378
7	1/29/2014 12:15	21.282
8	1/29/2014 12:30	21.187
9	1/29/2014 12:45	21.187
10	1/29/2014 13:00	21.091
11	1/29/2014 13:15	22.238
12	1/29/2014 13:30	21.187
13	1/29/2014 13:45	20.901
14	1/29/2014 14:00	20.71
15	1/29/2014 14:15	20.71
16	1/29/2014 14:30	20.71
17	1/29/2014 14:45	20.615
18	1/29/2014 15:00	20.615
19	1/29/2014 15:15	20.424
20	1/29/2014 15:30	20.71
21	1/29/2014 15:45	20.996
22	1/29/2014 16:00	21.569
23	1/29/2014 16:15	21.187
24	1/29/2014 16:30	20.424
25	1/29/2014 16:45	19.472
26	1/29/2014 17:00	18.616
27	1/29/2014 17:15	17.95
28	1/29/2014 17:30	17.475
29	1/29/2014 17:45	17.189
30	1/29/2014 18:00	16.999
31	1/29/2014 18:15	16.808
32	1/29/2014 18:30	16.618
33	1/29/2014 18:45	16.427
34	1/29/2014 19:00	16.237
35	1/29/2014 19:15	16.046
36	1/29/2014 19:30	15.855
37	1/29/2014 19:45	15.664
38	1/29/2014 20:00	15.664
39	1/29/2014 20:15	15.664
40	1/29/2014 20:30	15.473
41	1/29/2014 20:45	14.517
42	1/29/2014 21:00	12.883
43	1/29/2014 21:15	10.651
44	1/29/2014 21:30	10.455
45	1/29/2014 21:45	7.381
46	1/29/2014 22:00	7.179
47	1/29/2014 22:15	7.179
48	1/29/2014 22:30	7.179
49	1/29/2014 22:45	7.179
50	1/29/2014 23:00	7.179
51	1/29/2014 23:15	7.179
52	1/29/2014 23:30	7.179
53	1/29/2014 23:45	7.179
54	1/30/2014 0:00	7.179
55	1/30/2014 0:15	7.179
56	1/30/2014 0:30	7.179
57	1/30/2014 0:45	7.079
58	1/30/2014 1:00	7.179
59	1/30/2014 1:15	7.179
60	1/30/2014 1:30	7.28
61	1/30/2014 1:45	7.381
62	1/30/2014 2:00	7.582
63	1/30/2014 2:15	7.582
64	1/30/2014 2:30	7.582
65	1/30/2014 2:45	7.582
66	1/30/2014 3:00	7.682
67	1/30/2014 3:15	7.682
68	1/30/2014 3:30	7.782
69	1/30/2014 3:45	7.682
70	1/30/2014 4:00	7.782
71	1/30/2014 4:15	7.682
72	1/30/2014 4:30	7.782
73	1/30/2014 4:45	7.682
74	1/30/2014 5:00	7.782
75	1/30/2014 5:15	7.782
76	1/30/2014 5:30	7.782
77	1/30/2014 5:45	7.782
78	1/30/2014 6:00	7.782
79	1/30/2014 6:15	7.782
80	1/30/2014 6:30	7.782
81	1/30/2014 6:45	7.782
82	1/30/2014 7:00	7.782
83	1/30/2014 7:15	7.782
84	1/30/2014 7:30	7.782
85	1/30/2014 7:45	7.782
86	1/30/2014 8:00	7.782
87	1/30/2014 8:15	7.682
88	1/30/2014 8:30	7.682
89	1/30/2014 8:45	7.682
90	1/30/2014 9:00	7.682
91	1/30/2014 9:15	7.782
92	1/30/2014 9:30	7.782
93	1/30/2014 9:45	7.782
94	1/30/2014 10:00	7.782
95	1/30/2014 10:15	7.782
96	1/30/2014 10:30	7.782
97	1/30/2014 10:45	7.782
98	1/30/2014 11:00	7.782
99	1/30/2014 11:15	7.782
100	1/30/2014 11:30	7.882
101	1/30/2014 11:45	7.782
102	1/30/2014 12:00	7.782
103	1/30/2014 12:15	7.782
104	1/30/2014 12:30	7.782
105	1/30/2014 12:45	7.782
106	1/30/2014 13:00	7.782
107	1/30/2014 13:15	7.782
108	1/30/2014 13:30	7.782
109	1/30/2014 13:45	7.782
110	1/30/2014 14:00	7.782
111	1/30/2014 14:15	7.782
112	1/30/2014 14:30	7.782
113	1/30/2014 14:45	7.782
114	1/30/2014 15:00	7.782
115	1/30/2014 15:15	7.782
116	1/30/2014 15:30	7.782
117	1/30/2014 15:45	7.782
118	1/30/2014 16:00	7.782
119	1/30/2014 16:15	7.782
120	1/30/2014 16:30	7.782
121	1/30/2014 16:45	7.782
122	1/30/2014 17:00	7.782
123	1/30/2014 17:15	7.782
124	1/30/2014 17:30	7.782
125	1/30/2014 17:45	7.782
126	1/30/2014 18:00	7.782
127	1/30/2014 18:15	7.782
128	1/30/2014 18:30	7.782
129	1/30/2014 18:45	7.782
130	1/30/2014 19:00	7.782
131	1/30/2014 19:15	7.782
132	1/30/2014 19:30	7.782
133	1/30/2014 19:45	7.782
134	1/30/2014 20:00	7.782
135	1/30/2014 20:15	7.782
136	1/30/2014 20:30	7.782
137	1/30/2014 20:45	7.682
138	1/30/2014 21:00	7.682
139	1/30/2014 21:15	7.582
140	1/30/2014 21:30	7.582
141	1/30/2014 21:45	7.481
142	1/30/2014 22:00	7.381
143	1/30/2014 22:15	7.381
144	1/30/2014 22:30	7.381
145	1/30/2014 22:45	7.381
146	1/30/2014 23:00	7.381
147	1/30/2014 23:15	7.381
148	1/30/2014 23:30	7.28
149	1/30/2014 23:45	7.28
150	1/31/2014 0:00	7.179
151	1/31/2014 0:15	7.079
152	1/31/2014 0:30	6.978
153	1/31/2014 0:45	6.978
154	1/31/2014 1:00	6.877
155	1/31/2014 1:15	6.877
156	1/31/2014 1:30	6.877
157	1/31/2014 1:45	6.877
158	1/31/2014 2:00	6.877
159	1/31/2014 2:15	7.481
160	1/31/2014 2:30	7.582
161	1/31/2014 2:45	7.582
162	1/31/2014 3:00	7.582
163	1/31/2014 3:15	7.582
164	1/31/2014 3:30	7.682
165	1/31/2014 3:45	7.682
166	1/31/2014 4:00	7.682
167	1/31/2014 4:15	7.682
168	1/31/2014 4:30	7.682
169	1/31/2014 4:45	7.682
170	1/31/2014 5:00	7.682
171	1/31/2014 5:15	7.682
172	1/31/2014 5:30	7.682
173	1/31/2014 5:45	7.682
174	1/31/2014 6:00	7.582
175	1/31/2014 6:15	7.682
176	1/31/2014 6:30	7.682
177	1/31/2014 6:45	7.582
178	1/31/2014 7:00	7.682
179	1/31/2014 7:15	7.582
180	1/31/2014 7:30	7.582
181	1/31/2014 7:45	7.582
182	1/31/2014 8:00	7.582
183	1/31/2014 8:15	7.582
184	1/31/2014 8:30	7.582
185	1/31/2014 8:45	7.582
186	1/31/2014 9:00	7.582
187	1/31/2014 9:15	7.582
188	1/31/2014 9:30	7.582
189	1/31/2014 9:45	7.582
190	1/31/2014 10:00	7.682
191	1/31/2014 10:15	7.782
192	1/31/2014 10:30	7.782
193	1/31/2014 10:45	7.983
194	1/31/2014 11:00	8.082
195	1/31/2014 11:15	8.182
196	1/31/2014 11:30	8.182
197	1/31/2014 11:45	8.282
198	1/31/2014 12:00	8.282
199	1/31/2014 12:15	7.983
200	1/31/2014 12:30	8.581
201	1/31/2014 12:45	8.082
202	1/31/2014 13:00	7.983
203	1/31/2014 13:15	7.882
204	1/31/2014 13:30	7.882
205	1/31/2014 13:45	7.983
206	1/31/2014 14:00	7.983
207	1/31/2014 14:15	7.983
208	1/31/2014 14:30	7.882
209	1/31/2014 14:45	7.782
210	1/31/2014 15:00	7.782
211	1/31/2014 15:15	7.782
212	1/31/2014 15:30	7.782
213	1/31/2014 15:45	7.782
214	1/31/2014 16:00	7.782
215	1/31/2014 16:15	7.782
216	1/31/2014 16:30	7.782
217	1/31/2014 16:45	7.782
218	1/31/2014 17:00	7.782
219	1/31/2014 17:15	7.782
220	1/31/2014 17:30	7.682
221	1/31/2014 17:45	7.682
222	1/31/2014 18:00	7.782
223	1/31/2014 18:15	7.782
224	1/31/2014 18:30	7.782
225	1/31/2014 18:45	7.782
226	1/31/2014 19:00	7.782
227	1/31/2014 19:15	7.782
228	1/31/2014 19:30	7.782
229	1/31/2014 19:45	7.782
230	1/31/2014 20:00	7.682
231	1/31/2014 20:15	7.682
232	1/31/2014 20:30	7.682
233	1/31/2014 20:45	7.682
234	1/31/2014 21:00	7.582
235	1/31/2014 21:15	7.481
236	1/31/2014 21:30	6.775
237	1/31/2014 21:45	5.244
238	1/31/2014 22:00	3.893
239	1/31/2014 22:15	3.367
240	1/31/2014 22:30	3.049
241	1/31/2014 22:45	3.049
242	1/31/2014 23:00	2.73
243	1/31/2014 23:15	2.517
244	1/31/2014 23:30	2.517
245	1/31/2014 23:45	2.303
246	2/1/2014 0:00	2.195
247	2/1/2014 0:15	2.088
248	2/1/2014 0:30	1.98
249	2/1/2014 0:45	1.98
250	2/1/2014 1:00	1.98
251	2/1/2014 1:15	1.872
252	2/1/2014 1:30	1.656
253	2/1/2014 1:45	1.548
254	2/1/2014 2:00	1.439
255	2/1/2014 2:15	1.656
256	2/1/2014 2:30	1.656
257	2/1/2014 2:45	5.037
258	2/1/2014 3:00	5.347
259	2/1/2014 3:15	7.179
260	2/1/2014 3:30	7.28
261	2/1/2014 3:45	7.079
262	2/1/2014 4:00	6.978
263	2/1/2014 4:15	7.179
264	2/1/2014 4:30	7.381
265	2/1/2014 4:45	7.381
266	2/1/2014 5:00	7.381
267	2/1/2014 5:15	7.381
268	2/1/2014 5:30	7.381
269	2/1/2014 5:45	7.381
270	2/1/2014 6:00	7.381
271	2/1/2014 6:15	7.381
272	2/1/2014 6:30	7.28
273	2/1/2014 6:45	7.28
274	2/1/2014 7:00	7.28
275	2/1/2014 7:15	7.079
276	2/1/2014 7:30	7.179
277	2/1/2014 7:45	7.179
278	2/1/2014 8:00	7.179
279	2/1/2014 8:15	7.179
280	2/1/2014 8:30	7.179
281	2/1/2014 8:45	7.179
282	2/1/2014 9:00	7.079
283	2/1/2014 9:15	7.079
284	2/1/2014 9:30	7.179
285	2/1/2014 9:45	7.179
286	2/1/2014 10:00	6.978
287	2/1/2014 10:15	6.978
288	2/1/2014 10:30	7.28
289	2/1/2014 10:45	7.481
290	2/1/2014 11:00	7.582
291	2/1/2014 11:15	7.682
292	2/1/2014 11:30	7.882
293	2/1/2014 11:45	8.082
294	2/1/2014 12:00	8.382
295	2/1/2014 12:15	8.879
296	2/1/2014 12:30	8.978
297	2/1/2014 12:45	8.68
298	2/1/2014 13:00	8.481
299	2/1/2014 13:15	8.581
300	2/1/2014 13:30	9.176
301	2/1/2014 13:45	8.182
302	2/1/2014 14:00	7.983
303	2/1/2014 14:15	8.182
304	2/1/2014 14:30	7.983
305	2/1/2014 14:45	7.882
306	2/1/2014 15:00	7.882
307	2/1/2014 15:15	7.782
308	2/1/2014 15:30	7.782
309	2/1/2014 15:45	7.782
310	2/1/2014 16:00	7.582
311	2/1/2014 16:15	7.582
312	2/1/2014 16:30	7.582
313	2/1/2014 16:45	7.582
314	2/1/2014 17:00	7.582
315	2/1/2014 17:15	7.582
316	2/1/2014 17:30	7.582
317	2/1/2014 17:45	7.582
318	2/1/2014 18:00	7.481
319	2/1/2014 18:15	7.481
320	2/1/2014 18:30	7.481
321	2/1/2014 18:45	7.481
322	2/1/2014 19:00	7.481
323	2/1/2014 19:15	7.481
324	2/1/2014 19:30	7.582
325	2/1/2014 19:45	7.582
326	2/1/2014 20:00	7.682
327	2/1/2014 20:15	7.682
328	2/1/2014 20:30	7.682
329	2/1/2014 20:45	7.582
330	2/1/2014 21:00	7.582
331	2/1/2014 21:15	7.582
332	2/1/2014 21:30	7.582
333	2/1/2014 21:45	7.481
334	2/1/2014 22:00	7.28
335	2/1/2014 22:15	7.179
336	2/1/2014 22:30	6.064
337	2/1/2014 22:45	5.141
338	2/1/2014 23:00	4.102
339	2/1/2014 23:15	3.578
340	2/1/2014 23:30	3.049
341	2/1/2014 23:45	2.624
342	2/2/2014 0:00	2.195
343	2/2/2014 0:15	1.98
344	2/2/2014 0:30	1.764
345	2/2/2014 0:45	1.764
346	2/2/2014 1:00	1.439
347	2/2/2014 1:15	1.33
348	2/2/2014 1:30	1.221
349	2/2/2014 1:45	1.548
350	2/2/2014 2:00	1.33
351	2/2/2014 2:15	1.112
352	2/2/2014 2:30	1.003
353	2/2/2014 2:45	0.893
354	2/2/2014 3:00	0.674
355	2/2/2014 3:15	4.207
356	2/2/2014 3:30	4.623
357	2/2/2014 3:45	6.978
358	2/2/2014 4:00	7.179
359	2/2/2014 4:15	6.978
360	2/2/2014 4:30	6.877
361	2/2/2014 4:45	7.179
362	2/2/2014 5:00	7.481
363	2/2/2014 5:15	7.582
364	2/2/2014 5:30	7.682
365	2/2/2014 5:45	7.682
366	2/2/2014 6:00	7.782
367	2/2/2014 6:15	7.782
368	2/2/2014 6:30	7.682
369	2/2/2014 6:45	7.682
370	2/2/2014 7:00	7.582
371	2/2/2014 7:15	7.582
372	2/2/2014 7:30	7.582
373	2/2/2014 7:45	7.582
374	2/2/2014 8:00	7.582
375	2/2/2014 8:15	7.582
376	2/2/2014 8:30	7.481
377	2/2/2014 8:45	7.481
378	2/2/2014 9:00	7.481
379	2/2/2014 9:15	7.481
380	2/2/2014 9:30	7.481
381	2/2/2014 9:45	7.481
382	2/2/2014 10:00	7.582
383	2/2/2014 10:15	7.582
384	2/2/2014 10:30	7.481
385	2/2/2014 10:45	7.28
386	2/2/2014 11:00	7.28
387	2/2/2014 11:15	7.582
388	2/2/2014 11:30	7.682
389	2/2/2014 11:45	7.682
390	2/2/2014 12:00	7.782
391	2/2/2014 12:15	8.182
392	2/2/2014 12:30	8.481
393	2/2/2014 12:45	8.779
394	2/2/2014 13:00	8.382
395	2/2/2014 13:15	8.581
396	2/2/2014 13:30	8.879
397	2/2/2014 13:45	8.182
398	2/2/2014 14:00	7.582
399	2/2/2014 14:15	7.28
400	2/2/2014 14:30	6.877
401	2/2/2014 14:45	6.674
402	2/2/2014 15:00	7.983
403	2/2/2014 15:15	7.682
404	2/2/2014 15:30	7.582
405	2/2/2014 15:45	7.682
406	2/2/2014 16:00	7.782
407	2/2/2014 16:15	7.882
408	2/2/2014 16:30	7.882
409	2/2/2014 16:45	7.882
410	2/2/2014 17:00	7.882
411	2/2/2014 17:15	7.983
412	2/2/2014 17:30	7.983
413	2/2/2014 17:45	7.983
414	2/2/2014 18:00	7.983
415	2/2/2014 18:15	7.983
416	2/2/2014 18:30	7.983
417	2/2/2014 18:45	7.983
418	2/2/2014 19:00	7.882
419	2/2/2014 19:15	7.782
420	2/2/2014 19:30	7.782
421	2/2/2014 19:45	7.682
422	2/2/2014 20:00	7.782
423	2/2/2014 20:15	7.782
424	2/2/2014 20:30	7.682
425	2/2/2014 20:45	7.782
426	2/2/2014 21:00	7.782
427	2/2/2014 21:15	7.882
428	2/2/2014 21:30	7.882
429	2/2/2014 21:45	7.782
430	2/2/2014 22:00	7.582
431	2/2/2014 22:15	7.582
432	2/2/2014 22:30	7.582
433	2/2/2014 22:45	7.481
434	2/2/2014 23:00	7.179
435	2/2/2014 23:15	6.674
436	2/2/2014 23:30	4.831
437	2/2/2014 23:45	2.41
438	2/3/2014 0:00	1.98
439	2/3/2014 0:15	1.872
440	2/3/2014 0:30	1.764
441	2/3/2014 0:45	1.656
442	2/3/2014 1:00	1.439
443	2/3/2014 1:15	1.221
444	2/3/2014 1:30	1.112
445	2/3/2014 1:45	1.003
446	2/3/2014 2:00	0.893
447	2/3/2014 2:15	0.784
448	2/3/2014 2:30	0.784
449	2/3/2014 2:45	0.674
450	2/3/2014 3:00	0.453
451	2/3/2014 3:15	0.232
452	2/3/2014 3:30	0.343
453	2/3/2014 3:45	3.472
454	2/3/2014 4:00	4.207
455	2/3/2014 4:15	7.381
456	2/3/2014 4:30	7.481
457	2/3/2014 4:45	7.381
458	2/3/2014 5:00	6.978
459	2/3/2014 5:15	7.079
460	2/3/2014 5:30	7.782
461	2/3/2014 5:45	7.882
462	2/3/2014 6:00	7.882
463	2/3/2014 6:15	7.882
464	2/3/2014 6:30	7.983
465	2/3/2014 6:45	7.983
466	2/3/2014 7:00	7.983
467	2/3/2014 7:15	7.983
468	2/3/2014 7:30	7.983
469	2/3/2014 7:45	7.983
470	2/3/2014 8:00	7.782
471	2/3/2014 8:15	7.882
472	2/3/2014 8:30	7.782
473	2/3/2014 8:45	7.782
474	2/3/2014 9:00	7.682
475	2/3/2014 9:15	7.682
476	2/3/2014 9:30	7.481
477	2/3/2014 9:45	7.381
478	2/3/2014 10:00	7.381
479	2/3/2014 10:15	7.381
480	2/3/2014 10:30	7.28
481	2/3/2014 10:45	7.179
482	2/3/2014 11:00	6.978
483	2/3/2014 11:15	6.877
484	2/3/2014 11:30	6.877
485	2/3/2014 11:45	6.775
486	2/3/2014 12:00	6.877
487	2/3/2014 12:15	6.978
488	2/3/2014 12:30	6.978
489	2/3/2014 12:45	7.179
490	2/3/2014 13:00	7.079
491	2/3/2014 13:15	6.268
492	2/3/2014 13:30	5.86
493	2/3/2014 13:45	4.727
494	2/3/2014 14:00	4.415
495	2/3/2014 14:15	4.519
496	2/3/2014 14:30	5.037
497	2/3/2014 14:45	5.037
498	2/3/2014 15:00	5.037
499	2/3/2014 15:15	4.831
500	2/3/2014 15:30	4.727
501	2/3/2014 15:45	4.519
502	2/3/2014 16:00	4.415
503	2/3/2014 16:15	4.831
504	2/3/2014 16:30	6.268
505	2/3/2014 16:45	6.268
506	2/3/2014 17:00	8.182
507	2/3/2014 17:15	8.382
508	2/3/2014 17:30	8.382
509	2/3/2014 17:45	8.282
510	2/3/2014 18:00	8.282
511	2/3/2014 18:15	8.082
512	2/3/2014 18:30	8.282
513	2/3/2014 18:45	8.182
514	2/3/2014 19:00	8.282
515	2/3/2014 19:15	8.282
516	2/3/2014 19:30	8.382
517	2/3/2014 19:45	8.382
518	2/3/2014 20:00	8.282
519	2/3/2014 20:15	8.282
520	2/3/2014 20:30	8.182
521	2/3/2014 20:45	8.082
522	2/3/2014 21:00	7.882
523	2/3/2014 21:15	7.782
524	2/3/2014 21:30	7.381
525	2/3/2014 21:45	7.481
526	2/3/2014 22:00	7.381
527	2/3/2014 22:15	7.179
528	2/3/2014 22:30	6.978
529	2/3/2014 22:45	6.877
530	2/3/2014 23:00	7.179
531	2/3/2014 23:15	7.079
532	2/3/2014 23:30	6.775
533	2/3/2014 23:45	6.471
534	2/4/2014 0:00	6.166
535	2/4/2014 0:15	4.415
536	2/4/2014 0:30	2.73
537	2/4/2014 0:45	1.221
538	2/4/2014 1:00	0.01
539	2/4/2014 1:15	-0.213
540	2/4/2014 1:30	0.343
541	2/4/2014 1:45	0.674
542	2/4/2014 2:00	0.784
543	2/4/2014 2:15	0.893
544	2/4/2014 2:30	1.003
545	2/4/2014 2:45	0.893
546	2/4/2014 3:00	0.343
547	2/4/2014 3:15	0.453
548	2/4/2014 3:30	0.453
549	2/4/2014 3:45	0.453
550	2/4/2014 4:00	0.563
551	2/4/2014 4:15	3.367
552	2/4/2014 4:30	4.102
553	2/4/2014 4:45	7.28
554	2/4/2014 5:00	7.782
555	2/4/2014 5:15	7.782
556	2/4/2014 5:30	7.28
557	2/4/2014 5:45	7.381
558	2/4/2014 6:00	7.28
559	2/4/2014 6:15	7.882
560	2/4/2014 6:30	7.983
561	2/4/2014 6:45	7.983
562	2/4/2014 7:00	7.983
563	2/4/2014 7:15	8.082
564	2/4/2014 7:30	8.082
565	2/4/2014 7:45	8.082
566	2/4/2014 8:00	8.182
567	2/4/2014 8:15	7.882
568	2/4/2014 8:30	8.082
569	2/4/2014 8:45	7.882
570	2/4/2014 9:00	7.582
571	2/4/2014 9:15	7.381
572	2/4/2014 9:30	7.28
573	2/4/2014 9:45	7.28
574	2/4/2014 10:00	7.079
575	2/4/2014 10:15	7.28
576	2/4/2014 10:30	7.28
577	2/4/2014 10:45	7.079
578	2/4/2014 11:00	7.179
579	2/4/2014 11:15	6.978
580	2/4/2014 11:30	7.179
581	2/4/2014 11:45	6.978
582	2/4/2014 12:00	7.179
583	2/4/2014 12:15	7.079
584	2/4/2014 12:30	6.877
585	2/4/2014 12:45	6.573
586	2/4/2014 13:00	6.573
587	2/4/2014 13:15	6.674
588	2/4/2014 13:30	6.166
589	2/4/2014 13:45	5.552
590	2/4/2014 14:00	4.831
591	2/4/2014 14:15	4.415
592	2/4/2014 14:30	3.683
593	2/4/2014 14:45	3.578
594	2/4/2014 15:00	3.367
595	2/4/2014 15:15	2.837
596	2/4/2014 15:30	2.837
597	2/4/2014 15:45	2.517
598	2/4/2014 16:00	2.41
599	2/4/2014 16:15	2.303
600	2/4/2014 16:30	1.98
601	2/4/2014 16:45	1.764
602	2/4/2014 17:00	1.548
603	2/4/2014 17:15	1.221
604	2/4/2014 17:30	0.784
605	2/4/2014 17:45	4.934
606	2/4/2014 18:00	5.962
607	2/4/2014 18:15	5.45
608	2/4/2014 18:30	6.978
609	2/4/2014 18:45	7.682
610	2/4/2014 19:00	7.782
611	2/4/2014 19:15	7.782
612	2/4/2014 19:30	7.782
613	2/4/2014 19:45	7.582
614	2/4/2014 20:00	7.582
615	2/4/2014 20:15	7.682
616	2/4/2014 20:30	7.582
617	2/4/2014 20:45	7.582
618	2/4/2014 21:00	7.682
619	2/4/2014 21:15	7.682
620	2/4/2014 21:30	7.782
621	2/4/2014 21:45	7.582
622	2/4/2014 22:00	7.582
623	2/4/2014 22:15	7.481
624	2/4/2014 22:30	7.079
625	2/4/2014 22:45	6.877
626	2/4/2014 23:00	6.877
627	2/4/2014 23:15	6.674
628	2/4/2014 23:30	6.573
629	2/4/2014 23:45	6.573
630	2/5/2014 0:00	6.471
631	2/5/2014 0:15	6.166
632	2/5/2014 0:30	6.166
633	2/5/2014 0:45	5.962
634	2/5/2014 1:00	5.347
635	2/5/2014 1:15	3.049
636	2/5/2014 1:30	0.784
637	2/5/2014 1:45	-0.774
638	2/5/2014 2:00	-1.57
639	2/5/2014 2:15	-1.799
640	2/5/2014 2:30	-2.145
641	2/5/2014 2:45	-2.145
642	2/5/2014 3:00	-2.494
643	2/5/2014 3:15	-2.61
644	2/5/2014 3:30	-2.844
645	2/5/2014 3:45	-2.844
646	2/5/2014 4:00	-3.079
647	2/5/2014 4:15	-3.197
648	2/5/2014 4:30	-3.316
649	2/5/2014 4:45	1.439
650	2/5/2014 5:00	4.207
651	2/5/2014 5:15	3.683
652	2/5/2014 5:30	6.877
653	2/5/2014 5:45	7.28
654	2/5/2014 6:00	7.28
655	2/5/2014 6:15	7.079
656	2/5/2014 6:30	6.978
657	2/5/2014 6:45	6.573
658	2/5/2014 7:00	7.481
659	2/5/2014 7:15	7.582
660	2/5/2014 7:30	7.481
661	2/5/2014 7:45	7.381
662	2/5/2014 8:00	7.682
663	2/5/2014 8:15	7.481
664	2/5/2014 8:30	7.782
665	2/5/2014 8:45	7.782
666	2/5/2014 9:00	7.782
667	2/5/2014 9:15	7.481
668	2/5/2014 9:30	7.28
669	2/5/2014 9:45	7.28
670	2/5/2014 10:00	7.481
671	2/5/2014 10:15	7.179
672	2/5/2014 10:30	7.28
673	2/5/2014 10:45	7.28
674	2/5/2014 11:00	6.978
675	2/5/2014 11:15	6.674
676	2/5/2014 11:30	6.37
677	2/5/2014 11:45	6.268
678	2/5/2014 12:00	6.166
679	2/5/2014 12:15	6.064
680	2/5/2014 12:30	5.86
681	2/5/2014 12:45	5.757
682	2/5/2014 13:00	5.757
683	2/5/2014 13:15	5.757
684	2/5/2014 13:30	5.962
685	2/5/2014 13:45	6.064
686	2/5/2014 14:00	5.347
687	2/5/2014 14:15	4.311
688	2/5/2014 14:30	2.73
689	2/5/2014 14:45	2.195
690	2/5/2014 15:00	2.73
691	2/5/2014 15:15	3.472
692	2/5/2014 15:30	2.943
693	2/5/2014 15:45	2.73
694	2/5/2014 16:00	3.367
695	2/5/2014 16:15	2.195
696	2/5/2014 16:30	1.548
697	2/5/2014 16:45	-0.437
698	2/5/2014 17:00	-0.549
699	2/5/2014 17:15	-1.341
700	2/5/2014 17:30	-1.684
701	2/5/2014 17:45	-2.03
702	2/5/2014 18:00	-2.61
703	2/5/2014 18:15	-2.844
704	2/5/2014 18:30	-2.844
705	2/5/2014 18:45	-2.962
706	2/5/2014 19:00	-1.799
707	2/5/2014 19:15	5.655
708	2/5/2014 19:30	6.37
709	2/5/2014 19:45	5.86
710	2/5/2014 20:00	6.573
711	2/5/2014 20:15	7.28
712	2/5/2014 20:30	7.682
713	2/5/2014 20:45	7.682
714	2/5/2014 21:00	7.682
715	2/5/2014 21:15	7.682
716	2/5/2014 21:30	7.481
717	2/5/2014 21:45	7.481
718	2/5/2014 22:00	7.481
719	2/5/2014 22:15	7.381
720	2/5/2014 22:30	7.28
721	2/5/2014 22:45	7.179
722	2/5/2014 23:00	7.179
723	2/5/2014 23:15	7.179
724	2/5/2014 23:30	6.775
725	2/5/2014 23:45	6.573
726	2/6/2014 0:00	6.471
727	2/6/2014 0:15	6.674
728	2/6/2014 0:30	6.573
729	2/6/2014 0:45	6.471
730	2/6/2014 1:00	6.471
731	2/6/2014 1:15	6.37
732	2/6/2014 1:30	6.166
733	2/6/2014 1:45	5.757
734	2/6/2014 2:00	5.45
735	2/6/2014 2:15	5.244
736	2/6/2014 2:30	4.934
737	2/6/2014 2:45	4.519
738	2/6/2014 3:00	4.102
739	2/6/2014 3:15	3.578
740	2/6/2014 3:30	3.472
741	2/6/2014 3:45	3.261
742	2/6/2014 4:00	2.195
743	2/6/2014 4:15	2.73
744	2/6/2014 4:30	2.517
745	2/6/2014 4:45	2.303
746	2/6/2014 5:00	-0.213
747	2/6/2014 5:15	2.088
748	2/6/2014 5:30	3.049
749	2/6/2014 5:45	4.519
750	2/6/2014 6:00	5.86
751	2/6/2014 6:15	6.268
752	2/6/2014 6:30	6.166
753	2/6/2014 6:45	6.268
754	2/6/2014 7:00	5.86
755	2/6/2014 7:15	6.064
756	2/6/2014 7:30	5.86
757	2/6/2014 7:45	6.978
758	2/6/2014 8:00	7.079
759	2/6/2014 8:15	6.775
760	2/6/2014 8:30	7.28
761	2/6/2014 8:45	7.28
762	2/6/2014 9:00	7.28
763	2/6/2014 9:15	7.179
764	2/6/2014 9:30	7.381
765	2/6/2014 9:45	7.481
766	2/6/2014 10:00	7.481
767	2/6/2014 10:15	6.471
768	2/6/2014 10:30	6.775
769	2/6/2014 10:45	6.573
770	2/6/2014 11:00	7.28
771	2/6/2014 11:15	7.28
772	2/6/2014 11:30	6.978
773	2/6/2014 11:45	5.244
774	2/6/2014 12:00	5.037
775	2/6/2014 12:15	5.037
776	2/6/2014 12:30	5.037
777	2/6/2014 12:45	5.655
778	2/6/2014 13:00	5.552
779	2/6/2014 13:15	5.141
780	2/6/2014 13:30	4.415
781	2/6/2014 13:45	4.519
782	2/6/2014 14:00	4.623
783	2/6/2014 14:15	4.415
784	2/6/2014 14:30	4.519
785	2/6/2014 14:45	4.519
786	2/6/2014 15:00	4.415
787	2/6/2014 15:15	4.415
788	2/6/2014 15:30	4.311
789	2/6/2014 15:45	4.207
790	2/6/2014 16:00	4.311
791	2/6/2014 16:15	4.207
792	2/6/2014 16:30	3.998
793	2/6/2014 16:45	3.893
794	2/6/2014 17:00	3.683
795	2/6/2014 17:15	3.472
796	2/6/2014 17:30	2.943
797	2/6/2014 17:45	2.73
798	2/6/2014 18:00	2.624
799	2/6/2014 18:15	2.195
800	2/6/2014 18:30	2.41
801	2/6/2014 18:45	2.41
802	2/6/2014 19:00	2.195
803	2/6/2014 19:15	1.764
804	2/6/2014 19:30	1.764
805	2/6/2014 19:45	1.98
806	2/6/2014 20:00	2.624
807	2/6/2014 20:15	4.934
808	2/6/2014 20:30	5.45
809	2/6/2014 20:45	4.831
810	2/6/2014 21:00	6.471
811	2/6/2014 21:15	7.179
812	2/6/2014 21:30	7.28
813	2/6/2014 21:45	7.28
814	2/6/2014 22:00	7.179
815	2/6/2014 22:15	7.179
816	2/6/2014 22:30	7.079
817	2/6/2014 22:45	6.978
818	2/6/2014 23:00	7.179
819	2/6/2014 23:15	6.978
820	2/6/2014 23:30	7.28
821	2/6/2014 23:45	7.381
822	2/7/2014 0:00	7.381
823	2/7/2014 0:15	7.28
824	2/7/2014 0:30	7.28
825	2/7/2014 0:45	7.179
826	2/7/2014 1:00	7.079
827	2/7/2014 1:15	6.978
828	2/7/2014 1:30	6.877
829	2/7/2014 1:45	6.674
830	2/7/2014 2:00	6.573
831	2/7/2014 2:15	6.471
832	2/7/2014 2:30	6.268
833	2/7/2014 2:45	6.166
834	2/7/2014 3:00	6.166
835	2/7/2014 3:15	6.166
836	2/7/2014 3:30	6.166
837	2/7/2014 3:45	6.064
838	2/7/2014 4:00	5.962
839	2/7/2014 4:15	5.757
840	2/7/2014 4:30	5.757
841	2/7/2014 4:45	5.757
842	2/7/2014 5:00	5.655
843	2/7/2014 5:15	5.347
844	2/7/2014 5:30	5.347
845	2/7/2014 5:45	5.45
846	2/7/2014 6:00	5.141
847	2/7/2014 6:15	5.244
848	2/7/2014 6:30	5.244
849	2/7/2014 6:45	5.244
850	2/7/2014 7:00	5.45
851	2/7/2014 7:15	5.86
852	2/7/2014 7:30	5.86
853	2/7/2014 7:45	5.86
854	2/7/2014 8:00	5.552
855	2/7/2014 8:15	6.37
856	2/7/2014 8:30	6.37
857	2/7/2014 8:45	6.674
858	2/7/2014 9:00	6.775
859	2/7/2014 9:15	6.573
860	2/7/2014 9:30	6.775
861	2/7/2014 9:45	6.37
862	2/7/2014 10:00	6.471
863	2/7/2014 10:15	6.877
864	2/7/2014 10:30	6.877
865	2/7/2014 10:45	6.775
866	2/7/2014 11:00	6.775
867	2/7/2014 11:15	7.179
868	2/7/2014 11:30	7.079
869	2/7/2014 11:45	7.079
870	2/7/2014 12:00	6.877
871	2/7/2014 12:15	6.978
872	2/7/2014 12:30	6.775
873	2/7/2014 12:45	6.674
874	2/7/2014 13:00	5.347
875	2/7/2014 13:15	5.655
876	2/7/2014 13:30	5.757
877	2/7/2014 13:45	5.962
878	2/7/2014 14:00	5.962
879	2/7/2014 14:15	5.86
880	2/7/2014 14:30	6.064
881	2/7/2014 14:45	6.268
882	2/7/2014 15:00	6.268
883	2/7/2014 15:15	6.166
884	2/7/2014 15:30	6.064
885	2/7/2014 15:45	5.962
886	2/7/2014 16:00	5.86
887	2/7/2014 16:15	5.655
888	2/7/2014 16:30	5.244
889	2/7/2014 16:45	4.831
890	2/7/2014 17:00	4.519
891	2/7/2014 17:15	4.102
892	2/7/2014 17:30	3.893
893	2/7/2014 17:45	3.472
894	2/7/2014 18:00	3.472
895	2/7/2014 18:15	3.261
896	2/7/2014 18:30	2.943
897	2/7/2014 18:45	2.73
898	2/7/2014 19:00	2.517
899	2/7/2014 19:15	2.195
900	2/7/2014 19:30	2.088
901	2/7/2014 19:45	1.872
902	2/7/2014 20:00	1.656
903	2/7/2014 20:15	1.439
904	2/7/2014 20:30	1.112
905	2/7/2014 20:45	0.784
906	2/7/2014 21:00	0.674
907	2/7/2014 21:15	0.453
908	2/7/2014 21:30	3.049
909	2/7/2014 21:45	3.683
910	2/7/2014 22:00	3.683
911	2/7/2014 22:15	6.37
912	2/7/2014 22:30	6.775
913	2/7/2014 22:45	6.877
914	2/7/2014 23:00	6.877
915	2/7/2014 23:15	6.674
916	2/7/2014 23:30	6.674
917	2/7/2014 23:45	6.775
918	2/8/2014 0:00	6.573
919	2/8/2014 0:15	6.471
920	2/8/2014 0:30	7.079
921	2/8/2014 0:45	7.179
922	2/8/2014 1:00	7.28
923	2/8/2014 1:15	7.179
924	2/8/2014 1:30	6.877
925	2/8/2014 1:45	6.775
926	2/8/2014 2:00	6.775
927	2/8/2014 2:15	6.573
928	2/8/2014 2:30	6.674
929	2/8/2014 2:45	6.775
930	2/8/2014 3:00	6.674
931	2/8/2014 3:15	6.674
932	2/8/2014 3:30	6.573